FLX306 SBSP-SBRJ

Flight info

Callsign FLX306
Flight time 0h 36m
Altitude 25000
Route NIBRU UZ171 KEVUN
Aircraft B738/M-SDE2E3FGHIRWXY/LB1

Departure

Time 2026-05-07 21:19
Airport Congonhas–Deputado Freitas Nobre Airport (SBSP)

Arrival

Time 2026-05-07 21:55
Airport Santos Dumont Airport (SBRJ)
Time Latitude Longitude Altitude Speed Heading
2026-05-07 20:53 -23.62420 -46.66025 2599 ft 0 kts 237°
2026-05-07 21:07 -23.62419 -46.66024 2599 ft 2 kts 237°
2026-05-07 21:07 -23.62404 -46.66005 2599 ft 4 kts 205°
2026-05-07 21:07 -23.62380 -46.66002 2599 ft 4 kts 156°
2026-05-07 21:07 -23.62374 -46.66005 2599 ft 0 kts 148°
2026-05-07 21:12 -23.62378 -46.66002 2599 ft 6 kts 143°
2026-05-07 21:12 -23.62413 -46.65940 2600 ft 10 kts 124°
2026-05-07 21:12 -23.62467 -46.65892 2600 ft 10 kts 147°
2026-05-07 21:13 -23.62525 -46.65853 2601 ft 10 kts 148°
2026-05-07 21:13 -23.62581 -46.65814 2601 ft 9 kts 147°
2026-05-07 21:13 -23.62635 -46.65775 2601 ft 9 kts 146°
2026-05-07 21:13 -23.62687 -46.65738 2601 ft 9 kts 148°
2026-05-07 21:14 -23.62744 -46.65700 2601 ft 13 kts 148°
2026-05-07 21:14 -23.62833 -46.65639 2602 ft 17 kts 146°
2026-05-07 21:14 -23.62930 -46.65570 2602 ft 16 kts 148°
2026-05-07 21:14 -23.63032 -46.65523 2602 ft 16 kts 173°
2026-05-07 21:15 -23.63128 -46.65470 2601 ft 15 kts 146°
2026-05-07 21:15 -23.63216 -46.65408 2601 ft 15 kts 147°
2026-05-07 21:15 -23.63301 -46.65350 2601 ft 14 kts 148°
2026-05-07 21:15 -23.63365 -46.65306 2601 ft 10 kts 148°
2026-05-07 21:16 -23.63421 -46.65268 2601 ft 9 kts 148°
2026-05-07 21:16 -23.63465 -46.65238 2600 ft 4 kts 147°
2026-05-07 21:16 -23.63475 -46.65232 2600 ft 1 kts 147°
2026-05-07 21:16 -23.63480 -46.65228 2600 ft 1 kts 147°
2026-05-07 21:17 -23.63486 -46.65223 2600 ft 3 kts 143°
2026-05-07 21:17 -23.63500 -46.65171 2599 ft 9 kts 66°
2026-05-07 21:17 -23.63450 -46.65108 2587 ft 5 kts 32°
2026-05-07 21:17 -23.63437 -46.65113 2599 ft 0 kts 328°
2026-05-07 21:18 -23.63302 -46.65204 2609 ft 61 kts 328°
2026-05-07 21:18 -23.62717 -46.65613 2606 ft 137 kts 327°
2026-05-07 21:18 -23.62106 -46.66031 2799 ft 161 kts 329°
2026-05-07 21:19 -23.61189 -46.66676 3800 ft 156 kts 330°
2026-05-07 21:19 -23.60115 -46.66897 4524 ft 173 kts 11°
2026-05-07 21:19 -23.59051 -46.66129 4839 ft 206 kts 49°
2026-05-07 21:19 -23.58531 -46.64600 5213 ft 230 kts 84°
2026-05-07 21:20 -23.58933 -46.62865 5483 ft 243 kts 112°
2026-05-07 21:20 -23.59716 -46.61215 5480 ft 247 kts 115°
2026-05-07 21:20 -23.60398 -46.59461 5493 ft 264 kts 93°
2026-05-07 21:20 -23.60416 -46.57380 5504 ft 279 kts 84°
2026-05-07 21:21 -23.60334 -46.55260 5508 ft 281 kts 84°
2026-05-07 21:21 -23.60261 -46.53108 5605 ft 287 kts 85°
2026-05-07 21:21 -23.60207 -46.50927 6450 ft 287 kts 85°
2026-05-07 21:21 -23.60158 -46.48764 7434 ft 286 kts 84°
2026-05-07 21:22 -23.60107 -46.46593 8337 ft 288 kts 84°
2026-05-07 21:22 -23.60054 -46.44433 9216 ft 291 kts 84°
2026-05-07 21:22 -23.59999 -46.42209 10062 ft 295 kts 84°
2026-05-07 21:22 -23.59940 -46.39923 10551 ft 313 kts 84°
2026-05-07 21:23 -23.59872 -46.37443 10737 ft 339 kts 85°
2026-05-07 21:23 -23.59799 -46.34787 10901 ft 363 kts 85°
2026-05-07 21:23 -23.59726 -46.31976 11296 ft 376 kts 85°
2026-05-07 21:23 -23.59654 -46.29112 11931 ft 379 kts 86°
2026-05-07 21:24 -23.59582 -46.26220 12656 ft 381 kts 86°
2026-05-07 21:24 -23.59509 -46.23329 13316 ft 383 kts 86°
2026-05-07 21:24 -23.59433 -46.20415 13930 ft 386 kts 86°
2026-05-07 21:24 -23.59356 -46.17480 14430 ft 390 kts 86°
2026-05-07 21:25 -23.59276 -46.14509 14909 ft 394 kts 86°
2026-05-07 21:25 -23.59195 -46.11512 15427 ft 397 kts 86°
2026-05-07 21:25 -23.59113 -46.08488 15930 ft 401 kts 86°
2026-05-07 21:25 -23.59028 -46.05434 16426 ft 405 kts 86°
2026-05-07 21:26 -23.58943 -46.02387 16912 ft 408 kts 86°
2026-05-07 21:26 -23.58856 -45.99277 17400 ft 412 kts 86°
2026-05-07 21:26 -23.58767 -45.96132 17886 ft 415 kts 86°
2026-05-07 21:26 -23.58678 -45.92976 18393 ft 418 kts 86°
2026-05-07 21:27 -23.58587 -45.89783 18758 ft 423 kts 86°
2026-05-07 21:27 -23.58494 -45.86557 19091 ft 428 kts 87°
2026-05-07 21:27 -23.58399 -45.83296 19469 ft 432 kts 86°
2026-05-07 21:27 -23.58304 -45.80002 19811 ft 437 kts 86°
2026-05-07 21:28 -23.58206 -45.76679 20266 ft 439 kts 87°
2026-05-07 21:28 -23.58108 -45.73356 20772 ft 439 kts 87°
2026-05-07 21:28 -23.58008 -45.70018 20970 ft 444 kts 87°
2026-05-07 21:28 -23.57906 -45.66613 20982 ft 452 kts 87°
2026-05-07 21:29 -23.57802 -45.63156 21000 ft 460 kts 87°
2026-05-07 21:29 -23.57695 -45.59643 21002 ft 467 kts 87°
2026-05-07 21:29 -23.57585 -45.56074 20998 ft 473 kts 88°
2026-05-07 21:29 -23.57476 -45.52522 21004 ft 477 kts 87°
2026-05-07 21:30 -23.57362 -45.48912 21052 ft 477 kts 87°
2026-05-07 21:30 -23.57076 -45.45309 21416 ft 475 kts 79°
2026-05-07 21:30 -23.56380 -45.41805 22001 ft 469 kts 76°
2026-05-07 21:30 -23.55610 -45.38365 22579 ft 466 kts 75°
2026-05-07 21:31 -23.54826 -45.34906 22479 ft 475 kts 76°
2026-05-07 21:31 -23.54040 -45.31386 22438 ft 481 kts 76°
2026-05-07 21:31 -23.53260 -45.27818 22411 ft 487 kts 76°
2026-05-07 21:31 -23.52485 -45.24207 22404 ft 490 kts 76°
2026-05-07 21:32 -23.51715 -45.20588 22393 ft 488 kts 76°
2026-05-07 21:32 -23.50962 -45.17034 22384 ft 487 kts 76°
2026-05-07 21:32 -23.50102 -45.13467 22386 ft 487 kts 71°
2026-05-07 21:32 -23.48986 -45.09976 22755 ft 485 kts 69°
2026-05-07 21:33 -23.47813 -45.06565 23492 ft 477 kts 68°
2026-05-07 21:33 -23.46629 -45.03183 23651 ft 481 kts 68°
2026-05-07 21:33 -23.45431 -44.99741 23603 ft 488 kts 69°
2026-05-07 21:33 -23.44237 -44.96269 23575 ft 493 kts 69°
2026-05-07 21:34 -23.43043 -44.92752 23576 ft 497 kts 69°
2026-05-07 21:34 -23.41847 -44.89197 23583 ft 502 kts 69°
2026-05-07 21:34 -23.40648 -44.85615 23939 ft 498 kts 69°
2026-05-07 21:34 -23.39488 -44.82147 24520 ft 489 kts 70°
2026-05-07 21:35 -23.38332 -44.78687 24893 ft 485 kts 70°
2026-05-07 21:35 -23.37173 -44.75227 24976 ft 488 kts 70°
2026-05-07 21:35 -23.36003 -44.71737 24998 ft 493 kts 70°
2026-05-07 21:35 -23.34820 -44.68217 25002 ft 497 kts 70°
2026-05-07 21:36 -23.33625 -44.64663 24635 ft 506 kts 70°
2026-05-07 21:36 -23.32406 -44.61042 23889 ft 507 kts 69°
2026-05-07 21:36 -23.31206 -44.57478 23236 ft 498 kts 69°
2026-05-07 21:36 -23.30017 -44.53953 22537 ft 491 kts 69°
2026-05-07 21:37 -23.28847 -44.50489 21684 ft 486 kts 69°
2026-05-07 21:37 -23.27694 -44.47075 21258 ft 473 kts 69°
2026-05-07 21:37 -23.26580 -44.43779 20340 ft 471 kts 69°
2026-05-07 21:37 -23.25464 -44.40479 19932 ft 457 kts 68°
2026-05-07 21:38 -23.24365 -44.37233 19103 ft 453 kts 68°
2026-05-07 21:38 -23.23299 -44.34085 18324 ft 440 kts 68°
2026-05-07 21:38 -23.22248 -44.30986 17495 ft 435 kts 69°
2026-05-07 21:38 -23.21210 -44.27927 16836 ft 428 kts 69°
2026-05-07 21:39 -23.20181 -44.24896 16148 ft 424 kts 69°
2026-05-07 21:39 -23.19163 -44.21902 15507 ft 419 kts 69°
2026-05-07 21:39 -23.18173 -44.18991 14986 ft 410 kts 68°
2026-05-07 21:39 -23.17184 -44.16085 14271 ft 408 kts 68°
2026-05-07 21:40 -23.16206 -44.13210 13621 ft 404 kts 68°
2026-05-07 21:40 -23.15235 -44.10359 12968 ft 399 kts 68°
2026-05-07 21:40 -23.14277 -44.07549 12305 ft 395 kts 68°
2026-05-07 21:40 -23.13326 -44.04762 11710 ft 391 kts 67°
2026-05-07 21:41 -23.12386 -44.02007 11272 ft 383 kts 68°
2026-05-07 21:41 -23.11480 -43.99348 11127 ft 368 kts 67°
2026-05-07 21:41 -23.10606 -43.96789 10968 ft 355 kts 67°
2026-05-07 21:41 -23.09760 -43.94314 10818 ft 343 kts 67°
2026-05-07 21:42 -23.08945 -43.91931 10681 ft 332 kts 67°
2026-05-07 21:42 -23.08159 -43.89638 10537 ft 322 kts 67°
2026-05-07 21:42 -23.07390 -43.87393 10417 ft 314 kts 66°
2026-05-07 21:42 -23.06639 -43.85202 10271 ft 304 kts 66°
2026-05-07 21:43 -23.05910 -43.83076 10159 ft 297 kts 66°
2026-05-07 21:43 -23.05193 -43.80990 10041 ft 293 kts 66°
2026-05-07 21:43 -23.04481 -43.78921 9881 ft 293 kts 66°
2026-05-07 21:43 -23.03759 -43.76824 9571 ft 298 kts 66°
2026-05-07 21:44 -23.03032 -43.74713 9274 ft 298 kts 66°
2026-05-07 21:44 -23.02312 -43.72618 8978 ft 295 kts 66°
2026-05-07 21:44 -23.01599 -43.70542 8694 ft 292 kts 66°
2026-05-07 21:44 -23.00891 -43.68486 8408 ft 290 kts 66°
2026-05-07 21:45 -23.00189 -43.66446 8136 ft 287 kts 66°
2026-05-07 21:45 -22.99492 -43.64423 7857 ft 285 kts 65°
2026-05-07 21:45 -22.98809 -43.62438 7585 ft 283 kts 65°
2026-05-07 21:45 -22.98119 -43.60437 7312 ft 281 kts 65°
2026-05-07 21:46 -22.97433 -43.58449 7037 ft 280 kts 65°
2026-05-07 21:46 -22.96751 -43.56471 6763 ft 279 kts 65°
2026-05-07 21:46 -22.96072 -43.54510 6454 ft 276 kts 65°
2026-05-07 21:46 -22.95409 -43.52588 6191 ft 269 kts 65°
2026-05-07 21:47 -22.94754 -43.50703 6005 ft 263 kts 64°
2026-05-07 21:47 -22.94016 -43.48882 5647 ft 261 kts 59°
2026-05-07 21:47 -22.93247 -43.47112 5520 ft 259 kts 61°
2026-05-07 21:47 -22.92493 -43.45368 5396 ft 249 kts 60°
2026-05-07 21:48 -22.91786 -43.43722 5286 ft 232 kts 60°
2026-05-07 21:48 -22.91139 -43.42194 5130 ft 215 kts 61°
2026-05-07 21:48 -22.90548 -43.40795 5012 ft 197 kts 60°
2026-05-07 21:48 -22.89995 -43.39489 4928 ft 185 kts 60°
2026-05-07 21:49 -22.89465 -43.38246 4696 ft 181 kts 60°
2026-05-07 21:49 -22.88941 -43.37012 4445 ft 179 kts 61°
2026-05-07 21:49 -22.88414 -43.35778 3964 ft 186 kts 60°
2026-05-07 21:49 -22.87914 -43.34434 3306 ft 195 kts 68°
2026-05-07 21:50 -22.87493 -43.33094 3010 ft 180 kts 69°
2026-05-07 21:50 -22.87113 -43.31884 2817 ft 158 kts 69°
2026-05-07 21:50 -22.86774 -43.30811 2635 ft 143 kts 68°
2026-05-07 21:50 -22.86462 -43.29833 2547 ft 138 kts 68°
2026-05-07 21:51 -22.86141 -43.28831 2380 ft 139 kts 68°
2026-05-07 21:51 -22.85825 -43.27851 2218 ft 140 kts 69°
2026-05-07 21:51 -22.85511 -43.26848 2092 ft 141 kts 72°
2026-05-07 21:51 -22.85545 -43.25799 1967 ft 140 kts 98°
2026-05-07 21:52 -22.85706 -43.24745 1784 ft 141 kts 96°
2026-05-07 21:52 -22.85853 -43.23694 1612 ft 141 kts 96°
2026-05-07 21:52 -22.85998 -43.22646 1435 ft 140 kts 94°
2026-05-07 21:52 -22.86119 -43.21604 1343 ft 139 kts 96°
2026-05-07 21:53 -22.86270 -43.20564 1256 ft 141 kts 97°
2026-05-07 21:53 -22.86424 -43.19510 1137 ft 142 kts 97°
2026-05-07 21:53 -22.86573 -43.18474 1000 ft 140 kts 99°
2026-05-07 21:53 -22.86877 -43.17473 869 ft 141 kts 120°
2026-05-07 21:54 -22.87557 -43.16690 679 ft 148 kts 150°
2026-05-07 21:54 -22.88573 -43.16442 442 ft 149 kts 176°
2026-05-07 21:54 -22.89576 -43.16380 210 ft 138 kts 177°
2026-05-07 21:54 -22.90483 -43.16322 39 ft 123 kts 176°
2026-05-07 21:55 -22.91180 -43.16274 20 ft 55 kts 176°
2026-05-07 21:55 -22.91320 -43.16276 19 ft 10 kts 202°
2026-05-07 21:55 -22.91346 -43.16355 19 ft 13 kts 265°
2026-05-07 21:55 -22.91347 -43.16380 19 ft 1 kts 266°
2026-05-07 21:56 -22.91348 -43.16386 20 ft 1 kts 266°
2026-05-07 21:56 -22.91348 -43.16392 20 ft 1 kts 267°
2026-05-07 21:56 -22.91348 -43.16398 20 ft 1 kts 267°
2026-05-07 21:56 -22.91350 -43.16451 21 ft 8 kts 267°
2026-05-07 21:57 -22.91341 -43.16499 21 ft 4 kts 326°
2026-05-07 21:57 -22.91321 -43.16516 21 ft 4 kts 300°
2026-05-07 21:57 -22.91318 -43.16544 21 ft 4 kts 270°
2026-05-07 21:57 -22.91319 -43.16569 21 ft 2 kts 268°
2026-05-07 21:58 -22.91319 -43.16574 21 ft 0 kts 268°